Location: Frydek-Mistek
(49.6830°N, 18.3330°E)
Time: 10:31:22
(UTC+02:00)

Courier 1B Rocket - All Passes

Search period start: 25 April 2018 00:00
Search period end: 05 May 2018 00:00
Orbit: 920 x 1202 km, 28.2° (Epoch: 24 April)

Date Brightness Start Highest point End Pass type
(mag) Time Alt. Az. Time Alt. Az. Time Alt. Az.
25 Apr - 11:05:40 10° SSW 11:08:04 12° S 11:10:26 10° SSE daylight
26 Apr - 10:05:12 10° S 10:07:25 11° S 10:09:36 10° SSE daylight
26 Apr - 11:57:29 10° SSW 11:59:27 11° S 12:01:23 10° S daylight
27 Apr - 09:05:35 10° S 09:06:44 10° SSE 09:07:54 10° SSE daylight
27 Apr - 10:56:02 10° SSW 10:58:49 12° S 11:01:32 10° SSE daylight
28 Apr - 09:55:05 10° SSW 09:58:08 13° S 10:01:07 10° SSE daylight
28 Apr - 11:49:18 10° SSW 11:50:10 10° SSW 11:51:02 10° S daylight
29 Apr - 08:54:34 10° SSW 08:57:26 12° S 09:00:14 10° SSE daylight
29 Apr - 10:46:52 10° SSW 10:49:31 12° S 10:52:08 10° SSE daylight
30 Apr - 07:54:44 10° S 07:56:43 11° SSE 07:58:42 10° SSE daylight
30 Apr - 09:45:33 10° SSW 09:48:50 13° S 09:52:04 10° SSE daylight
01 May - 08:44:40 10° SSW 08:48:07 13° S 08:51:31 10° SSE daylight
01 May - 10:38:19 10° SSW 10:40:12 11° SSW 10:42:04 10° S daylight
02 May - 07:44:12 10° SSW 07:47:23 13° S 07:50:33 10° SSE daylight
02 May - 09:36:25 10° SSW 09:39:31 13° S 09:42:34 10° SSE daylight
03 May - 06:44:22 10° S 06:46:39 11° SSE 06:48:57 10° SSE daylight
03 May - 08:35:13 10° SSW 08:38:48 14° S 08:42:20 10° SSE daylight
04 May - 07:34:25 10° SSW 07:38:03 14° S 07:41:40 10° SSE daylight
04 May - 09:27:51 10° SSW 09:30:10 11° SSW 09:32:29 10° S daylight
